Weather History for Ahoskie, NC

Change the Weather History Date:

Wednesday, May 22, 2013

  Actual Average (KEMV) Record (KEMV)
Temperature  
Mean Temperature 76 °F -  
Max Temperature 85 °F 79 °F 90 °F (1984)
Min Temperature 66 °F 55 °F 41 °F (2002)
Cooling Degree Days 10    
Growing Degree Days 26 (Base 50)    
Moisture  
Dew Point 67 °F    
Average Humidity 76    
Maximum Humidity 91    
Minimum Humidity 57    
Precipitation  
Precipitation 0.00 in - - ()
Sea Level Pressure  
Sea Level Pressure 30.00 in    
Wind  
Wind Speed 6 mph (South)    
Max Wind Speed 15 mph    
Max Gust Speed 24 mph    
Visibility 10 miles    
Events      
Averages and records for this station are not official NWS values.
T = Trace of Precipitation, MM = Missing Value Source: NWS Daily Summary

Daily Weather History Graph

Daily Weather History Graph

Search for Another Location

Airport:

Trip Planner

Search our weather history database for the weather conditions in past years. The results will help you decide how hot, cold, wet, or windy it might be!

Date:

Astronomy

May. 22, 2013 Rise Set
Actual Time 5:57 AM EDT 8:14 PM EDT
Civil Twilight 5:27 AM EDT 8:43 PM EDT
Nautical Twilight 4:52 AM EDT 9:19 PM EDT
Astronomical Twilight 4:13 AM EDT 9:58 PM EDT
Moon 5:37 PM EDT (5/22) 3:54 AM EDT (5/22)
Length of Visible Light 15h 15m
Length of Day
14h 16m
Waxing Gibbous, 91% of the Moon is Illuminated
May 22
Waxing Gibbous
May 25
Full
May 31
Last Quarter
Jun 8
New
Jun 16
First Quarter

Hourly Weather History & Observations

Time (EDT) Temp. Heat Index Dew Point Humidity Pressure Visibility Wind Dir Wind Speed Gust Speed Precip Events Conditions
12:15 AM 70.0 °F - 67.1 °F 91% 30.01 in 10.0 mi South 5.8 mph - N/A   Clear
12:35 AM 70.0 °F - 67.1 °F 91% 30.01 in 10.0 mi South 5.8 mph - N/A   Clear
12:55 AM 70.0 °F - 66.9 °F 90% 30.01 in 10.0 mi South 4.6 mph - N/A   Clear
1:15 AM 70.0 °F - 66.7 °F 89% 30.01 in 10.0 mi South 4.6 mph - N/A   Clear
1:35 AM 70.0 °F - 66.7 °F 89% 30.01 in 10.0 mi South 5.8 mph - N/A   Clear
1:55 AM 70.0 °F - 66.7 °F 89% 30.01 in 10.0 mi South 4.6 mph - N/A   Clear
2:15 AM 70.0 °F - 66.7 °F 89% 30.01 in 10.0 mi South 4.6 mph - N/A   Clear
2:35 AM 70.0 °F - 66.7 °F 89% 30.01 in 10.0 mi South 5.8 mph - N/A   Clear
2:55 AM 70.0 °F - 66.7 °F 89% 30.00 in 10.0 mi South 4.6 mph - N/A   Clear
3:15 AM 70.0 °F - 66.6 °F 89% 30.00 in 10.0 mi South 4.6 mph - N/A   Clear
5:55 AM 66.2 °F - 63.5 °F 91% 29.99 in 10.0 mi South 5.8 mph - N/A   Scattered Clouds
6:15 AM 66.7 °F - 64.0 °F 91% 30.00 in 10.0 mi South 5.8 mph - N/A   Overcast
6:35 AM 67.6 °F - 64.8 °F 90% 30.01 in 10.0 mi South 4.6 mph - N/A   Overcast
6:55 AM 70.0 °F - 67.1 °F 91% 30.01 in 10.0 mi South 4.6 mph - N/A   Overcast
7:15 AM 70.0 °F - 66.9 °F 90% 30.02 in 10.0 mi South 4.6 mph - N/A   Overcast
7:35 AM 70.0 °F - 66.6 °F 89% 30.02 in 10.0 mi South 4.6 mph - N/A   Overcast
7:55 AM 70.0 °F - 66.6 °F 89% 30.03 in 10.0 mi Calm Calm - N/A   Overcast
8:15 AM 70.0 °F - 66.2 °F 88% 30.03 in 10.0 mi South 3.5 mph - N/A   Overcast
8:35 AM 70.0 °F - 65.7 °F 86% 30.03 in 10.0 mi South 3.5 mph - N/A   Overcast
8:55 AM 71.8 °F - 66.9 °F 85% 30.04 in 10.0 mi SSW 5.8 mph - N/A   Overcast
9:15 AM 72.5 °F - 66.9 °F 83% 30.04 in 10.0 mi South 3.5 mph - N/A   Scattered Clouds
9:35 AM 75.2 °F - 68.0 °F 78% 30.04 in 10.0 mi South 8.1 mph 16.1 mph N/A   Mostly Cloudy
9:55 AM 75.2 °F - 67.6 °F 77% 30.04 in 10.0 mi South 8.1 mph - N/A   Mostly Cloudy
10:15 AM 75.2 °F - 67.8 °F 78% 30.04 in 10.0 mi Calm Calm - N/A   Scattered Clouds
10:35 AM 76.5 °F - 67.8 °F 75% 30.04 in 10.0 mi South 3.5 mph - N/A   Scattered Clouds
10:55 AM 75.2 °F - 68.2 °F 79% 30.05 in 10.0 mi Calm Calm - N/A   Mostly Cloudy
11:15 AM 75.9 °F - 68.2 °F 77% 30.04 in 10.0 mi South 4.6 mph - N/A   Scattered Clouds
11:35 AM 77.5 °F - 66.9 °F 70% 30.04 in 10.0 mi South 5.8 mph - N/A   Clear
11:55 AM 77.5 °F - 67.8 °F 72% 30.03 in 10.0 mi South 5.8 mph - N/A   Scattered Clouds
12:15 PM 78.6 °F - 66.6 °F 66% 30.02 in 10.0 mi South 3.5 mph - N/A   Scattered Clouds
12:35 PM 78.8 °F - 66.7 °F 66% 30.02 in 10.0 mi South 8.1 mph - N/A   Scattered Clouds
12:55 PM 81.9 °F 85.2 °F 69.3 °F 65% 30.01 in 10.0 mi South 6.9 mph - N/A   Clear
1:15 PM 82.4 °F 85.6 °F 68.7 °F 63% 30.01 in 10.0 mi South 5.8 mph - N/A   Scattered Clouds
1:35 PM 81.5 °F 84.2 °F 67.8 °F 63% 30.00 in 10.0 mi South 6.9 mph - N/A   Scattered Clouds
1:55 PM 85.1 °F 89.1 °F 69.1 °F 59% 29.99 in 10.0 mi South 5.8 mph - N/A   Scattered Clouds
2:15 PM 81.5 °F 84.2 °F 68.0 °F 63% 29.99 in 10.0 mi South 5.8 mph - N/A   Scattered Clouds
2:35 PM 81.1 °F 83.2 °F 65.8 °F 60% 29.98 in 10.0 mi South 3.5 mph - N/A   Scattered Clouds
2:55 PM 84.7 °F 87.9 °F 67.8 °F 57% 29.98 in 10.0 mi Calm Calm - N/A   Scattered Clouds
3:15 PM 82.4 °F 86.3 °F 69.8 °F 66% 29.98 in 10.0 mi South 15.0 mph - N/A   Scattered Clouds
3:35 PM 84.6 °F 89.4 °F 70.9 °F 63% 29.97 in 10.0 mi South 9.2 mph - N/A   Clear
3:55 PM 85.1 °F 90.1 °F 70.7 °F 62% 29.96 in 10.0 mi South 12.7 mph - N/A   Clear
4:15 PM 81.3 °F 83.6 °F 66.7 °F 61% 29.96 in 10.0 mi South 10.4 mph 16.1 mph N/A   Clear
4:35 PM 84.0 °F 86.8 °F 67.3 °F 57% 29.96 in 10.0 mi South 10.4 mph 17.3 mph N/A   Clear
4:55 PM 82.6 °F 84.9 °F 66.6 °F 58% 29.95 in 10.0 mi South 10.4 mph 24.2 mph N/A   Clear
5:15 PM 82.4 °F 85.2 °F 67.8 °F 61% 29.94 in 10.0 mi South 15.0 mph 18.4 mph N/A   Clear
5:35 PM 78.8 °F - 64.4 °F 61% 29.94 in 10.0 mi South 6.9 mph - N/A   Scattered Clouds
5:55 PM 80.1 °F 82.1 °F 66.0 °F 62% 29.95 in 10.0 mi South 6.9 mph - N/A   Clear
6:15 PM 78.8 °F - 65.5 °F 64% 29.94 in 10.0 mi South 8.1 mph - N/A   Clear
6:35 PM 78.8 °F - 65.5 °F 64% 29.94 in 10.0 mi South 9.2 mph 16.1 mph N/A   Clear
6:55 PM 78.3 °F - 64.8 °F 63% 29.94 in 10.0 mi South 9.2 mph 19.6 mph N/A   Clear
7:15 PM 77.5 °F - 64.4 °F 64% 29.95 in 10.0 mi South 8.1 mph - N/A   Clear
7:35 PM 77.5 °F - 65.3 °F 66% 29.95 in 10.0 mi South 6.9 mph - N/A   Clear
7:55 PM 76.3 °F - 65.3 °F 69% 29.96 in 10.0 mi South 8.1 mph - N/A   Clear
8:15 PM 75.2 °F - 65.8 °F 73% 29.96 in 10.0 mi South 5.8 mph - N/A   Clear
8:35 PM 72.9 °F - 65.5 °F 78% 29.96 in 10.0 mi South 3.5 mph - N/A   Clear
8:55 PM 72.5 °F - 65.5 °F 79% 29.97 in 10.0 mi South 3.5 mph - N/A   Clear
9:15 PM 72.5 °F - 66.2 °F 81% 29.98 in 10.0 mi South 4.6 mph - N/A   Clear
9:35 PM 72.5 °F - 65.7 °F 79% 29.98 in 10.0 mi South 4.6 mph - N/A   Clear
9:55 PM 72.5 °F - 66.2 °F 81% 29.99 in 10.0 mi South 6.9 mph - N/A   Clear
10:15 PM 71.8 °F - 66.2 °F 83% 29.99 in 10.0 mi South 5.8 mph - N/A   Clear
10:35 PM 70.0 °F - 64.8 °F 83% 30.00 in 10.0 mi South 3.5 mph - N/A   Clear
10:55 PM 70.0 °F - 65.3 °F 85% 30.00 in 10.0 mi South 5.8 mph - N/A   Clear
11:15 PM 70.0 °F - 65.3 °F 85% 30.00 in 10.0 mi South 5.8 mph - N/A   Clear
11:35 PM 70.0 °F - 65.3 °F 85% 30.00 in 10.0 mi South 6.9 mph - N/A   Clear
11:55 PM 70.0 °F - 65.3 °F 85% 30.00 in 10.0 mi South 6.9 mph - N/A   Clear